Wind_Speed
52 54 56 57 59 59 58 58 59 63 66 69 71 70 66 67 71 85 84 84 83 83 85 85 82 80 57 40 43 52 56 54 52 40 43 42 40 36 33 28 29 28 26
43 43 47 47 50 54 58 61 64 67 70 74 77 79 76 72 68 72 83 87 87 86 83 79 82 76 62 55 48 57 54 53 56 51 51 47 40 32 28 25 26 28 25
42 44 48 53 58 60 63 67 72 75 78 78 76 79 80 79 75 71 71 81 88 88 87 82 74 74 66 58 59 53 60 56 70 49 52 49 43 30 27 30 30 32 27
42 47 52 56 60 64 68 72 76 79 83 82 77 74 77 77 75 75 71 72 78 88 88 83 74 70 65 64 64 54 46 55 47 51 54 51 49 41 29 29 33 32 30
47 51 56 61 63 66 71 73 77 77 72 70 65 65 69 72 71 74 72 60 72 77 88 85 74 69 65 66 65 49 49 47 42 51 57 59 49 38 36 33 37 34 31
50 56 60 63 63 68 71 74 72 65 61 62 55 54 60 62 61 63 68 63 67 64 78 83 76 69 67 65 58 55 45 44 47 42 53 44 34 35 32 32 36 34 32
53 59 60 63 66 67 71 71 62 57 58 56 52 53 51 51 54 58 52 57 61 62 63 73 78 68 65 60 51 50 44 42 38 52 49 41 38 36 31 33 36 34 35
56 60 63 64 68 73 74 66 56 52 53 52 51 50 47 47 50 46 49 47 50 62 57 61 68 68 60 52 49 47 42 35 32 37 37 38 40 40 36 34 36 37 35
56 60 64 67 74 77 73 60 52 51 48 47 45 49 47 47 42 45 38 36 38 43 45 42 49 60 50 49 45 45 41 33 37 44 41 38 38 36 33 36 37 36 35
56 61 68 77 81 65 52 49 46 38 33 36 37 38 40 33 36 35 32 37 29 28 38 33 35 50 45 41 48 47 45 41 44 41 39 38 35 37 37 35 34 35 32
58 66 76 67 53 47 38 30 23 22 27 30 30 31 26 34 35 36 32 34 41 39 35 35 35 38 42 41 44 49 50 48 41 36 35 37 39 36 33 30 34 31 24
59 69 61 50 46 38 24 19 15 17 21 23 20 23 28 31 31 32 32 25 49 46 33 37 42 40 46 49 41 44 38 33 34 39 39 37 35 30 30 29 29 24 20
59 61 51 46 42 35 23 20 16 13 14 17 20 27 29 27 27 30 33 36 37 43 42 40 44 52 45 40 38 34 33 32 32 32 33 33 30 30 28 25 24 22 20
57 53 49 44 42 35 24 17 10 8 12 21 23 27 27 31 30 25 24 35 48 56 56 39 44 40 36 34 31 30 31 32 31 32 31 31 30 28 27 27 24 23 22
55 52 48 43 41 37 20 9 2 5 21 21 24 24 25 26 25 30 33 46 37 39 39 42 43 38 33 34 35 34 34 32 30 30 31 32 31 30 29 27 25 25 24
52 52 50 42 41 31 14 5 4 11 23 21 19 19 21 23 28 30 44 50 42 44 42 43 40 32 27 26 29 31 31 30 30 31 30 30 30 30 29 28 27 26 25
48 48 51 40 40 28 14 9 3 18 22 20 21 19 16 10 23 37 48 57 49 42 44 42 34 29 27 26 27 27 28 27 29 31 33 32 31 31 31 30 28 27 23
45 46 45 43 34 36 24 16 7 23 21 18 15 9 16 36 42 47 37 41 41 37 41 36 34 27 24 23 20 24 26 25 25 26 30 31 33 32 31 28 27 25 21
41 43 41 41 33 29 33 24 11 21 19 21 20 18 13 38 42 43 34 37 33 30 31 38 34 28 26 24 23 27 30 28 27 27 27 29 30 31 32 30 28 26 21
37 40 40 37 35 25 22 23 17 13 17 18 19 19 15 24 30 30 44 31 29 32 29 31 35 36 29 27 27 28 32 32 29 29 29 29 29 32 33 31 29 25 23
32 35 36 37 33 29 18 15 14 12 14 17 20 19 16 16 22 23 40 31 31 30 30 33 33 35 36 31 32 34 36 34 31 29 29 30 30 30 32 30 28 27 26
27 28 30 32 32 28 23 15 9 9 9 11 19 24 24 20 22 28 31 30 41 35 30 32 35 38 32 35 35 37 37 35 34 33 29 28 29 30 30 30 28 28 27
21 24 25 26 26 27 20 18 12 4 2 6 13 21 27 30 31 31 31 27 32 35 30 37 40 31 35 31 35 39 36 33 33 33 31 28 27 27 28 29 29 28 26
19 20 22 25 24 23 19 15 11 9 6 4 10 15 19 29 36 40 40 37 37 38 36 33 37 35 35 37 41 39 35 36 34 32 30 33 32 29 25 27 28 26 23
22 17 18 22 23 24 20 14 13 7 5 4 3 8 15 22 26 31 38 43 48 45 44 42 41 39 33 37 42 38 36 39 37 34 30 31 34 29 23 24 24 23 19
22 21 21 24 23 19 21 20 10 5 10 7 8 7 9 11 16 24 34 43 48 52 54 54 51 49 44 43 44 42 39 41 39 36 31 32 35 32 27 26 24 24 24
Wind_Direction
277 276 278 280 280 278 278 279 279 279 278 277 275 271 261 259 257 248 249 250 252 252 252 253 255 257 263 273 245 234 235 242 244 234 242 243 250 256 269 273 251 259 261
273 269 269 277 284 284 283 282 281 278 275 274 272 270 266 258 257 256 251 246 247 249 250 251 253 256 258 265 253 246 243 239 239 243 231 237 246 248 257 245 253 259 262
285 294 292 289 289 289 286 285 284 282 280 277 268 264 261 257 253 254 256 251 244 246 249 249 252 252 253 252 254 248 257 242 240 235 238 230 237 240 240 245 256 258 258
297 296 294 293 291 289 288 287 287 286 283 279 275 265 257 256 249 251 255 253 249 242 245 246 247 250 249 247 247 248 252 234 257 238 233 236 228 230 238 241 252 250 260
296 294 293 292 291 291 293 291 291 287 282 278 275 267 256 257 253 249 250 254 246 243 241 244 242 245 247 249 251 252 254 257 238 235 246 238 224 226 228 236 243 246 254
294 296 297 297 297 296 295 298 292 283 278 272 270 266 262 255 249 243 245 250 243 244 241 242 240 240 244 248 253 259 258 266 265 224 223 226 216 218 223 234 241 249 254
301 303 302 298 297 297 299 301 288 279 275 273 265 261 257 254 245 245 250 249 240 241 241 240 239 238 241 245 253 254 256 255 254 220 212 199 205 216 226 235 240 245 251
304 305 303 301 301 301 302 298 281 280 274 269 261 259 254 247 248 247 239 235 238 236 241 237 239 238 240 243 250 254 256 241 236 209 202 200 213 219 223 232 238 246 250
308 308 308 306 304 302 299 291 279 276 270 266 256 251 249 245 243 236 232 220 226 228 232 233 235 236 237 241 250 252 245 242 219 209 201 199 210 216 219 228 235 242 251
314 314 313 311 311 306 299 291 281 271 262 261 254 254 244 232 213 207 210 217 215 218 213 216 229 234 233 239 236 244 240 222 205 194 193 201 206 211 217 227 237 243 248
321 321 320 325 325 320 313 303 281 262 260 255 255 249 217 194 196 195 204 198 206 189 197 204 216 223 232 228 224 210 202 193 182 185 194 202 211 215 219 225 234 240 246
331 330 335 338 336 334 322 317 301 277 261 262 215 181 187 192 192 202 201 207 180 169 181 187 199 191 188 187 182 182 175 172 183 195 202 208 213 213 219 223 234 239 236
337 341 344 343 342 341 324 313 306 281 267 195 172 174 189 192 187 197 186 200 186 171 177 179 181 182 172 171 165 167 175 188 193 197 200 205 210 214 219 224 229 228 230
343 348 346 348 348 342 334 305 311 270 209 175 174 181 186 184 186 190 190 164 171 179 170 170 172 167 159 163 169 182 191 194 195 199 200 204 209 214 218 222 220 224 230
348 350 347 352 351 346 341 324 265 227 179 166 170 184 186 183 200 194 177 175 175 161 166 165 164 162 170 176 181 186 190 195 194 197 199 204 209 213 216 218 218 223 230
349 354 355 355 357 350 344 37 21 180 160 168 166 178 194 209 196 195 174 176 179 173 172 166 160 170 173 177 182 186 191 193 193 197 200 203 208 212 216 216 218 223 228
354 357 0 3 13 17 22 6 350 163 158 165 163 170 206 228 166 162 170 172 171 170 165 160 167 177 181 186 191 193 195 196 197 198 200 201 203 207 212 213 215 222 228
1 360 4 11 15 22 24 38 98 151 161 159 157 164 127 158 159 160 164 163 168 169 163 172 169 168 182 189 202 209 206 203 210 212 210 202 201 205 206 209 216 226 233
8 6 7 13 17 24 34 44 97 147 159 158 151 157 150 166 169 180 169 173 181 179 178 176 181 189 191 196 203 211 208 207 209 213 215 213 208 209 208 212 220 228 230
9 12 10 11 19 23 32 37 63 157 170 170 170 165 165 183 193 194 187 164 177 182 187 185 190 192 197 205 207 212 213 210 205 208 210 213 214 215 215 217 225 232 238
2 16 13 13 14 24 30 50 66 97 175 188 189 191 192 185 181 187 180 195 187 188 193 200 205 206 208 209 212 207 205 208 203 204 209 214 215 217 221 224 229 234 244
356 4 17 17 15 13 24 28 53 96 127 163 207 214 210 207 201 196 201 207 186 191 202 204 203 211 216 216 210 207 208 205 205 204 207 214 220 223 227 229 232 237 244
350 354 6 9 12 15 8 18 22 24 172 177 187 195 216 220 217 214 222 222 211 209 215 221 224 227 215 224 215 208 205 210 211 212 210 214 220 226 231 235 235 237 241
333 340 357 4 4 359 10 359 360 360 348 265 226 218 219 220 225 228 224 221 224 216 214 220 210 213 229 222 211 209 204 211 216 219 218 224 227 230 236 235 233 232 233
323 328 338 345 351 351 345 344 348 282 317 300 251 232 227 228 230 232 237 235 228 222 222 220 225 228 228 220 212 207 209 213 215 217 222 225 224 229 228 221 219 223 230
321 326 323 323 325 331 336 338 294 293 231 276 282 265 249 252 251 247 239 235 232 230 229 226 222 223 225 223 215 210 214 216 220 222 222 221 220 222 222 221 225 233 240
Height
5683 5680 5677 5673 5670 5666 5662 5659 5657 5654 5651 5649 5647 5648 5649 5650 5651 5654 5660 5666 5671 5677 5684 5686 5689 5694 5705 5709 5710 5717 5724 5727 5728 5736 5745 5745 5749 5751 5757 5754 5757 5758 5758
5673 5670 5667 5662 5656 5651 5646 5641 5638 5635 5632 5628 5625 5623 5624 5627 5629 5632 5635 5642 5649 5655 5662 5669 5675 5684 5696 5698 5702 5705 5712 5715 5720 5721 5726 5735 5739 5742 5747 5749 5751 5750 5751
5656 5649 5645 5640 5635 5630 5625 5620 5614 5609 5605 5601 5598 5596 5596 5601 5605 5608 5614 5618 5627 5637 5643 5652 5661 5669 5680 5687 5687 5689 5695 5698 5705 5708 5713 5720 5728 5733 5737 5742 5743 5744 5743
5641 5636 5631 5625 5619 5613 5606 5599 5591 5582 5576 5571 5568 5569 5572 5574 5579 5585 5590 5599 5606 5615 5623 5635 5646 5654 5663 5668 5670 5677 5682 5689 5696 5689 5702 5708 5716 5723 5729 5732 5736 5736 5738
5629 5623 5616 5609 5600 5593 5584 5574 5565 5556 5549 5543 5542 5541 5544 5548 5553 5561 5568 5577 5586 5594 5604 5616 5631 5640 5646 5650 5654 5662 5667 5674 5679 5681 5692 5699 5705 5712 5717 5722 5728 5728 5730
5616 5609 5600 5590 5580 5570 5559 5549 5538 5531 5526 5522 5521 5522 5524 5527 5533 5541 5548 5557 5567 5576 5585 5596 5613 5625 5634 5639 5646 5651 5657 5660 5666 5671 5679 5686 5694 5702 5708 5715 5721 5721 5724
5602 5593 5582 5572 5561 5548 5535 5523 5514 5508 5505 5502 5502 5505 5508 5512 5518 5524 5532 5542 5551 5561 5568 5578 5594 5609 5620 5631 5639 5645 5651 5653 5649 5655 5665 5675 5685 5694 5701 5708 5711 5711 5716
5589 5579 5566 5552 5539 5524 5510 5498 5492 5487 5484 5482 5484 5487 5492 5499 5504 5513 5521 5530 5537 5546 5554 5565 5579 5594 5608 5620 5628 5634 5639 5642 5646 5650 5657 5667 5676 5685 5692 5699 5705 5707 5711
5576 5563 5548 5532 5515 5498 5484 5473 5467 5463 5462 5464 5466 5471 5479 5485 5493 5501 5510 5519 5528 5535 5547 5557 5568 5581 5597 5610 5618 5623 5626 5632 5637 5643 5652 5661 5670 5678 5685 5692 5694 5700 5704
5562 5547 5529 5508 5487 5468 5457 5449 5444 5442 5446 5450 5453 5458 5463 5473 5483 5494 5503 5512 5521 5530 5542 5551 5561 5575 5590 5598 5605 5609 5614 5623 5628 5637 5647 5655 5662 5670 5677 5684 5690 5695 5695
5549 5531 5509 5485 5468 5454 5442 5435 5431 5434 5437 5441 5444 5447 5456 5468 5479 5490 5498 5504 5513 5522 5535 5544 5557 5567 5578 5583 5591 5597 5605 5613 5622 5633 5642 5649 5658 5664 5670 5676 5684 5686 5689
5537 5516 5494 5477 5461 5448 5440 5435 5431 5431 5433 5435 5439 5447 5459 5467 5478 5487 5494 5500 5510 5522 5529 5540 5549 5558 5565 5574 5580 5590 5599 5609 5620 5631 5638 5646 5654 5658 5664 5669 5675 5679 5683
5526 5506 5489 5473 5459 5448 5440 5435 5431 5431 5431 5434 5442 5451 5460 5469 5478 5486 5496 5500 5508 5521 5532 5536 5542 5550 5562 5569 5577 5588 5599 5608 5616 5623 5631 5638 5645 5651 5657 5662 5668 5673 5677
5519 5502 5486 5471 5458 5446 5436 5431 5429 5431 5432 5439 5448 5456 5463 5470 5478 5487 5494 5499 5506 5518 5526 5534 5541 5551 5560 5571 5579 5589 5598 5605 5611 5619 5625 5633 5640 5645 5650 5657 5662 5667 5670
5514 5500 5483 5469 5456 5443 5433 5429 5429 5431 5436 5445 5453 5460 5466 5474 5480 5488 5497 5504 5513 5521 5527 5533 5542 5554 5565 5572 5579 5587 5594 5602 5608 5614 5620 5627 5633 5638 5644 5650 5655 5659 5664
5514 5498 5483 5469 5456 5443 5437 5434 5434 5435 5442 5450 5458 5465 5468 5473 5479 5485 5495 5506 5516 5522 5528 5538 5546 5557 5565 5572 5579 5585 5592 5598 5602 5609 5614 5621 5628 5634 5639 5644 5650 5655 5659
5515 5499 5485 5473 5460 5449 5442 5440 5439 5443 5449 5455 5463 5469 5470 5472 5479 5487 5493 5507 5516 5520 5530 5540 5549 5557 5564 5571 5578 5585 5592 5596 5600 5604 5610 5616 5621 5628 5635 5640 5646 5651 5655
5515 5503 5491 5478 5468 5458 5451 5445 5445 5449 5457 5462 5468 5472 5475 5480 5487 5496 5501 5510 5518 5525 5535 5543 5550 5558 5566 5572 5578 5583 5589 5595 5600 5604 5608 5610 5616 5624 5632 5637 5642 5647 5651
5518 5506 5495 5485 5476 5468 5462 5457 5456 5458 5464 5468 5475 5481 5486 5492 5494 5500 5503 5513 5522 5528 5535 5542 5551 5558 5565 5570 5576 5581 5587 5593 5599 5604 5609 5612 5617 5622 5628 5633 5638 5643 5647
5520 5511 5501 5491 5484 5478 5472 5469 5468 5469 5472 5476 5479 5482 5488 5496 5501 5506 5511 5517 5524 5530 5537 5543 5549 5556 5562 5567 5572 5579 5587 5592 5595 5600 5606 5611 5615 5620 5625 5630 5633 5637 5640
5523 5515 5507 5498 5490 5485 5481 5478 5478 5478 5479 5482 5486 5491 5492 5496 5501 5509 5513 5518 5523 5528 5534 5541 5546 5552 5556 5561 5567 5574 5580 5586 5591 5597 5603 5607 5611 5615 5620 5625 5628 5631 5636
5523 5517 5511 5504 5498 5491 5486 5484 5481 5482 5484 5486 5487 5491 5497 5500 5505 5510 5511 5515 5520 5523 5528 5534 5539 5544 5549 5555 5560 5567 5574 5579 5585 5592 5597 5601 5606 5609 5613 5618 5622 5626 5629
5522 5517 5512 5507 5503 5498 5493 5488 5486 5485 5484 5485 5488 5491 5493 5495 5501 5507 5510 5514 5518 5520 5526 5531 5535 5539 5544 5549 5555 5561 5569 5575 5579 5585 5591 5595 5600 5603 5607 5612 5616 5620 5623
5521 5516 5512 5507 5503 5499 5496 5492 5489 5487 5485 5484 5484 5485 5488 5492 5493 5496 5500 5505 5510 5514 5518 5523 5527 5533 5538 5541 5547 5555 5561 5568 5574 5579 5584 5590 5594 5598 5601 5605 5609 5613 5616
5519 5515 5511 5506 5502 5498 5496 5493 5491 5487 5485 5483 5482 5482 5483 5485 5486 5489 5492 5495 5499 5503 5508 5514 5521 5526 5529 5534 5538 5547 5554 5559 5566 5572 5577 5582 5587 5591 5595 5599 5603 5607 5611
5515 5512 5509 5505 5501 5496 5492 5490 5487 5484 5482 5480 5479 5478 5477 5477 5478 5478 5479 5481 5485 5491 5496 5503 5509 5516 5521 5525 5531 5537 5544 5551 5558 5562 5567 5573 5579 5584 5589 5593 5597 5602 5605